Weather History for KFRM - December, 2013

Change the Weather History Date:

Monday, December 9, 2013

  Actual Average Record
Temperature  
Mean Temperature 0 °F -  
Max Temperature 8 °F 29 °F 52 °F (1990)
Min Temperature -5 °F 13 °F -15 °F (1958)
Degree Days  
Heating Degree Days 64    
Moisture  
Dew Point -6 °F    
Average Humidity 73    
Maximum Humidity 92    
Minimum Humidity 56    
Precipitation  
Precipitation 0.00 in - - ()
Sea Level Pressure  
Sea Level Pressure 30.05 in    
Wind  
Wind Speed 13 mph (WSW)    
Max Wind Speed 20 mph    
Max Gust Speed 25 mph    
Visibility 10 miles    
Events      
Averages and records for this station are not official NWS values.
T = Trace of Precipitation, MM = Missing Value Source: NWS Daily Summary

Daily Weather History Graph

Daily Weather History Graph

Search for Another Location

Airport or City:

Trip Planner

Search our weather history database for the weather conditions in past years. The results will help you decide how hot, cold, wet, or windy it might be!

Date:

Astronomy

Dec. 09, 2013 Rise Set
Actual Time 7:39 AM CST 4:40 PM CST
Civil Twilight 7:06 AM CST 5:13 PM CST
Nautical Twilight 6:30 AM CST 5:49 PM CST
Astronomical Twilight 5:56 AM CST 6:24 PM CST
Moon 12:22 PM CST (12/9) No Moon Set
Length of Visible Light 10h 06m
Length of Day
9h 01m
Waxing Crescent, 51% of the Moon is Illuminated
Dec 9
Waxing Crescent
Dec 17
Full
Dec 25
Last Quarter
Jan 1
New
Jan 7
First Quarter

Hourly Weather History & Observations

Time (CST) Temp. Windchill Dew Point Humidity Pressure Visibility Wind Dir Wind Speed Gust Speed Precip Events Conditions
12:15 AM 6.8 °F -7.8 °F 3.2 °F 85% 30.03 in 10.0 mi WNW 10.4 mph - N/A   Clear
12:35 AM 6.8 °F -8.6 °F 1.4 °F 79% 30.03 in 10.0 mi West 11.5 mph - N/A   Clear
12:55 AM 5.0 °F -10.8 °F 1.4 °F 85% 30.02 in 10.0 mi West 11.5 mph - N/A   Clear
1:15 AM 5.0 °F -10.0 °F -0.4 °F 78% 30.02 in 10.0 mi West 10.4 mph - N/A   Clear
1:35 AM 3.2 °F -12.2 °F -0.4 °F 85% 30.01 in 10.0 mi West 10.4 mph - N/A   Clear
1:55 AM 3.2 °F -12.2 °F -0.4 °F 85% 30.02 in 10.0 mi West 10.4 mph - N/A   Clear
2:15 AM 3.2 °F -12.2 °F -0.4 °F 85% 30.02 in 10.0 mi West 10.4 mph - N/A   Clear
2:35 AM 3.2 °F -13.9 °F -0.4 °F 85% 30.02 in 10.0 mi West 12.7 mph - N/A   Clear
2:55 AM 3.2 °F -12.2 °F -0.4 °F 85% 30.03 in 10.0 mi West 10.4 mph - N/A   Clear
3:15 AM 1.4 °F -16.9 °F -0.4 °F 92% 30.02 in 10.0 mi WNW 13.8 mph - N/A   Clear
3:35 AM 1.4 °F -16.9 °F -2.2 °F 85% 30.02 in 10.0 mi West 13.8 mph - N/A   Clear
3:55 AM 1.4 °F -15.3 °F -2.2 °F 85% 30.02 in 10.0 mi West 11.5 mph - N/A   Clear
4:15 AM 1.4 °F -15.3 °F -2.2 °F 85% 30.03 in 10.0 mi West 11.5 mph - N/A   Clear
4:35 AM -0.4 °F -21.2 °F -5.8 °F 78% 30.01 in 10.0 mi WNW 17.3 mph - N/A   Clear
4:55 AM -0.4 °F -21.2 °F -5.8 °F 78% 30.03 in 10.0 mi West 17.3 mph - N/A   Clear
5:15 AM -0.4 °F -20.5 °F -7.6 °F 72% 30.04 in 10.0 mi West 16.1 mph - N/A   Clear
5:35 AM -0.4 °F -19.9 °F -7.6 °F 72% 30.04 in 10.0 mi West 15.0 mph - N/A   Clear
5:55 AM -2.2 °F -22.2 °F -7.6 °F 78% 30.04 in 10.0 mi West 15.0 mph - N/A   Clear
6:15 AM -2.2 °F -24.7 °F -7.6 °F 78% 30.05 in 10.0 mi West 19.6 mph 25.3 mph N/A   Clear
6:35 AM -2.2 °F -22.9 °F -9.4 °F 71% 30.06 in 10.0 mi West 16.1 mph - N/A   Clear
6:55 AM -4.0 °F -26.4 °F -11.2 °F 71% 30.08 in 10.0 mi West 18.4 mph - N/A   Clear
7:15 AM -5.8 °F -26.8 °F - N/A% 30.08 in 10.0 mi West 15.0 mph - N/A   Clear
7:35 AM -5.8 °F -26.0 °F - N/A% 30.10 in 10.0 mi West 13.8 mph - N/A   Clear
7:55 AM -5.8 °F -27.5 °F -11.2 °F 77% 30.11 in 10.0 mi West 16.1 mph - N/A   Clear
8:15 AM -5.8 °F -26.0 °F -11.2 °F 77% 30.12 in 10.0 mi West 13.8 mph 17.3 mph N/A   Clear
8:35 AM -4.0 °F -23.7 °F -11.2 °F 71% 30.12 in 10.0 mi West 13.8 mph - N/A   Clear
8:55 AM -4.0 °F -24.5 °F -9.4 °F 78% 30.13 in 10.0 mi West 15.0 mph - N/A   Clear
9:15 AM -2.2 °F -22.9 °F -11.2 °F 66% 30.13 in 10.0 mi West 16.1 mph 20.7 mph N/A   Clear
9:35 AM -2.2 °F -20.7 °F -9.4 °F 71% 30.14 in 10.0 mi West 12.7 mph - N/A   Clear
9:55 AM -2.2 °F -24.7 °F -9.4 °F 71% 30.15 in 8.0 mi West 19.6 mph 23.0 mph N/A   Clear
10:15 AM -2.2 °F -22.2 °F -9.4 °F 71% 30.14 in 10.0 mi West 15.0 mph 24.2 mph N/A   Clear
10:35 AM -0.4 °F -21.2 °F -9.4 °F 66% 30.14 in 10.0 mi West 17.3 mph - N/A   Clear
10:55 AM -0.4 °F -21.2 °F -9.4 °F 66% 30.14 in 10.0 mi West 17.3 mph 24.2 mph N/A   Clear
11:15 AM -0.4 °F -20.5 °F -7.6 °F 72% 30.14 in 10.0 mi West 16.1 mph - N/A   Clear
11:35 AM -0.4 °F -21.2 °F -7.6 °F 72% 30.14 in 10.0 mi WNW 17.3 mph 23.0 mph N/A   Clear
11:55 AM 1.4 °F -18.8 °F -7.6 °F 66% 30.13 in 10.0 mi West 17.3 mph - N/A   Clear
12:15 PM 1.4 °F -18.8 °F -7.6 °F 66% 30.14 in 10.0 mi West 17.3 mph - N/A   Clear
12:35 PM 3.2 °F -13.9 °F -5.8 °F 66% 30.13 in 10.0 mi West 12.7 mph - N/A   Clear
12:55 PM 3.2 °F -15.3 °F -7.6 °F 61% 30.14 in 10.0 mi WNW 15.0 mph - N/A   Clear
1:15 PM 3.2 °F -17.1 °F -7.6 °F 61% 30.13 in 10.0 mi WNW 18.4 mph 24.2 mph N/A   Clear
1:35 PM 3.2 °F -15.9 °F -7.6 °F 61% 30.12 in 10.0 mi West 16.1 mph 19.6 mph N/A   Clear
1:55 PM 3.2 °F -16.5 °F -7.6 °F 61% 30.13 in 10.0 mi West 17.3 mph - N/A   Clear
2:15 PM 3.2 °F -13.9 °F -5.8 °F 66% 30.13 in 10.0 mi West 12.7 mph - N/A   Clear
2:35 PM 5.0 °F -13.6 °F -5.8 °F 61% 30.12 in 10.0 mi West 16.1 mph - N/A   Clear
2:55 PM 5.0 °F -10.8 °F -7.6 °F 56% 30.13 in 10.0 mi WSW 11.5 mph - N/A   Clear
3:15 PM 3.2 °F -13.1 °F -7.6 °F 61% 30.12 in 10.0 mi WSW 11.5 mph - N/A   Clear
3:35 PM 3.2 °F -12.2 °F -5.8 °F 66% 30.11 in 10.0 mi WSW 10.4 mph - N/A   Clear
3:55 PM 3.2 °F -10.3 °F -7.6 °F 61% 30.10 in 10.0 mi SW 8.1 mph - N/A   Clear
4:15 PM 3.2 °F -12.2 °F -7.6 °F 61% 30.10 in 10.0 mi SW 10.4 mph - N/A   Clear
4:35 PM 1.4 °F -16.9 °F -7.6 °F 66% 30.10 in 10.0 mi SW 13.8 mph - N/A   Clear
4:55 PM 1.4 °F -14.5 °F -9.4 °F 61% 30.11 in 10.0 mi SW 10.4 mph - N/A   Clear
5:15 PM -0.4 °F -14.7 °F -7.6 °F 72% 30.11 in 10.0 mi SW 8.1 mph - N/A   Clear
5:35 PM -0.4 °F -15.7 °F -7.6 °F 72% 30.10 in 10.0 mi SW 9.2 mph - N/A   Clear
5:55 PM -0.4 °F -16.7 °F -7.6 °F 72% 30.08 in 10.0 mi SSW 10.4 mph - N/A   Clear
6:15 PM -0.4 °F -17.6 °F -7.6 °F 72% 30.07 in 10.0 mi SSW 11.5 mph - N/A   Clear
6:35 PM -0.4 °F -15.7 °F -7.6 °F 72% 30.06 in 10.0 mi SSW 9.2 mph - N/A   Clear
6:55 PM -0.4 °F -17.6 °F -7.6 °F 72% 30.05 in 10.0 mi South 11.5 mph - N/A   Clear
7:15 PM -0.4 °F -16.7 °F -7.6 °F 72% 30.04 in 10.0 mi SSW 10.4 mph - N/A   Clear
7:35 PM -0.4 °F -17.6 °F -7.6 °F 72% 30.03 in 10.0 mi South 11.5 mph - N/A   Clear
7:55 PM 1.4 °F -16.9 °F -4.0 °F 78% 30.02 in 10.0 mi South 13.8 mph - N/A   Clear
8:15 PM -0.4 °F -17.6 °F -5.8 °F 78% 30.01 in 10.0 mi South 11.5 mph - N/A   Clear
8:35 PM -0.4 °F -16.7 °F -5.8 °F 78% 30.00 in 10.0 mi South 10.4 mph - N/A   Clear
8:55 PM -0.4 °F -18.4 °F -5.8 °F 78% 29.98 in 10.0 mi South 12.7 mph - N/A   Clear
9:15 PM 1.4 °F -17.6 °F -4.0 °F 78% 29.96 in 10.0 mi South 15.0 mph - N/A   Mostly Cloudy
9:35 PM 1.4 °F -19.4 °F -2.2 °F 85% 29.94 in 10.0 mi South 18.4 mph - N/A   Overcast
9:55 PM 3.2 °F -16.5 °F -2.2 °F 78% 29.91 in 10.0 mi South 17.3 mph - N/A   Mostly Cloudy
10:15 PM 3.2 °F -15.9 °F -2.2 °F 78% 29.90 in 10.0 mi South 16.1 mph - N/A   Overcast
10:35 PM 5.0 °F -14.7 °F -0.4 °F 78% 29.89 in 10.0 mi South 18.4 mph - N/A   Overcast
10:55 PM 5.0 °F -14.2 °F -2.2 °F 72% 29.87 in 10.0 mi SSW 17.3 mph 23.0 mph N/A   Overcast
11:15 PM 6.8 °F -10.7 °F -0.4 °F 72% 29.86 in 10.0 mi SSW 15.0 mph - N/A   Overcast
11:35 PM 6.8 °F -11.3 °F 1.4 °F 79% 29.86 in 10.0 mi SSW 16.1 mph 21.9 mph N/A   Overcast
11:55 PM 8.6 °F -9.5 °F 3.2 °F 79% 29.84 in 10.0 mi SW 17.3 mph - N/A   Overcast